Flag for Russia Weather past 2 weeks in Pyatigorsk, Russia

Now
27 °F

Passing clouds.


Feels Like: 27 °F
Forecast: 36 / 49 °F
Wind: 1 mph from Northeast

Location: Mineral'Nye Vody

Current Time: Dec 23, 2014 at 5:44:40 AM

Latest Report: Dec 23, 2014 at 5:00 AM


Visibility: N/A

Pressure: 30.04 "Hg

Humidity: 74%

Dew point: 19 °F

Location of PyatigorskLocation

Historic Weather in Pyatigorsk — Graph

°F

Pyatigorsk temperature yesterday

Maximum temperature yesterday: 45 °F (at 12:00 AM)
Minimum temperature yesterday: 32 °F (at 11:30 PM)
Average temperature yesterday: 38 °F

Past Weeks' High & Low Weather Summary

 TemperatureHumidityPressure
High61 °F (Dec 11, 2:30 PM)100% (Dec 8, 4:00 AM)30.39 "Hg (Dec 8, 4:00 AM)
Low19 °F (Dec 8, 7:00 AM)54% (Dec 19, 1:30 PM)29.71 "Hg (Dec 22, 6:00 AM)
Average35 °F93%30.16 "Hg
* Reported Dec 8 4:00 AM — Dec 23 4:30 AM, Pyatigorsk, Weather by CustomWeather, © 2014

Note: Actual official high and low records may vary slightly from our data, if they occured in-between our weather recording intervals... More about our weather records

Advertising

Pyatigorsk weather history for previous 24 hours

 ConditionsComfort  
Time TempWeatherWind HumidityBarometerVisibility
4:30 AM
Dec 23
25 °FPassing clouds.6 mph86%30.04 "HgN/A
4:00 AM27 °FPassing clouds.8 mph80%30.04 "HgN/A
3:30 AM28 °FClear.10 mph80%30.07 "HgN/A
3:00 AM28 °FClear.10 mph80%30.07 "HgN/A
2:30 AM27 °FPassing clouds.6 mph80%30.07 "HgN/A
2:00 AM27 °FPassing clouds.6 mph86%30.07 "HgN/A
1:30 AM32 °FPassing clouds.10 mph75%30.09 "HgN/A
12:30 AM30 °FPassing clouds.10 mph75%30.09 "HgN/A
12:00 AM32 °FPassing clouds.8 mph75%30.09 "HgN/A
11:30 PM
Dec 22
32 °FPassing clouds.10 mph75%30.09 "HgN/A
11:00 PM34 °FOvercast.10 mph70%30.09 "HgN/A
10:30 PM34 °FOvercast.13 mph70%30.09 "HgN/A
10:00 PM36 °FOvercast.17 mph65%30.09 "HgN/A
9:30 PM36 °FOvercast.17 mph65%30.09 "HgN/A
9:00 PM36 °FOvercast.17 mph65%30.09 "HgN/A
8:30 PM36 °FOvercast.13 mph70%30.07 "HgN/A
8:00 PM36 °FOvercast.6 mph70%30.07 "HgN/A
7:30 PM36 °FOvercast.10 mph70%30.07 "HgN/A
7:00 PM36 °FOvercast.15 mph70%30.04 "HgN/A
6:30 PM36 °FOvercast.15 mph75%30.04 "HgN/A
6:00 PM36 °FOvercast.20 mph81%30.04 "HgN/A
5:30 PM36 °FOvercast.17 mph81%30.04 "HgN/A
5:00 PM36 °FOvercast.24 mph81%30.01 "HgN/A
4:30 PM37 °FOvercast.22 mph81%30.01 "HgN/A
4:00 PM37 °FOvercast.22 mph81%30.01 "HgN/A
3:30 PM37 °FSprinkles. Partly sunny.24 mph81%29.98 "HgN/A
3:00 PM37 °FSprinkles. Partly sunny.24 mph75%29.98 "HgN/A
2:30 PM39 °FPartly sunny.29 mph70%29.95 "HgN/A
2:00 PM39 °FSprinkles. Partly sunny.26 mph70%29.95 "HgN/A
1:30 PM37 °FSprinkles. Overcast.26 mph75%29.92 "HgN/A
1:00 PM39 °FOvercast.29 mph70%29.92 "HgN/A
12:30 PM37 °FOvercast.26 mph75%29.92 "HgN/A
12:00 PM39 °FOvercast.29 mph75%29.92 "HgN/A
11:30 AM41 °FPartly sunny.29 mph76%29.89 "HgN/A
11:00 AM43 °FPartly sunny.22 mph76%29.86 "HgN/A
10:30 AM43 °FPartly sunny.20 mph76%29.86 "HgN/A
10:00 AM43 °FPartly sunny.17 mph76%29.86 "HgN/A
9:30 AM41 °FPartly sunny.20 mph76%29.83 "HgN/A
9:00 AM39 °FPartly sunny.13 mph75%29.83 "HgN/A
8:30 AM37 °FPassing clouds.13 mph87%29.80 "HgN/A
8:00 AM36 °FPassing clouds.10 mph93%29.77 "HgN/A
7:30 AM36 °FPassing clouds.3 mph93%29.74 "HgN/A
7:00 AM36 °FPassing clouds.No wind93%29.74 "Hg4 mi
6:30 AM36 °FPassing clouds.No wind93%29.74 "HgN/A
6:00 AM36 °FPassing clouds.3 mph93%29.71 "HgN/A
5:30 AM37 °FPassing clouds.No wind87%29.74 "HgN/A
5:00 AM39 °FPassing clouds.No wind81%29.74 "HgN/A
Weather by CustomWeather, © 2014

See weather overviewHow to use our weather pages